Flag for U.S.A. Weather past 2 weeks in Idaho Falls, Idaho, U.S.A.

Now
75 °F

Scattered clouds.


Feels Like: 78 °F
Forecast: 55 / 84 °F
Wind: 6 mph from North

Location: Fanning Field

Current Time: Jul 6, 2015 at 6:32:49 PM

Latest Report: Jul 6, 2015 at 5:53 PM


Visibility: 10 mi

Pressure: 29.99 "Hg (25.44 "Hg at 1429m altitude)

Humidity: 47%

Dew point: 53 °F

Location of Idaho FallsLocation

Historic Weather in Idaho Falls — Graph

°F

Idaho Falls temperature yesterday

Maximum temperature yesterday: 82 °F (at 4:53 PM)
Minimum temperature yesterday: 64 °F (at 11:53 PM)
Average temperature yesterday: 73 °F

Past Weeks' High & Low Weather Summary

 TemperatureHumidityPressure
High99 °F (Jun 29, 3:53 PM)93% (Jun 27, 5:53 AM)30.14 "Hg (Jun 27, 5:53 AM)
Low46 °F (Jun 22, 5:53 AM)10% (Jul 4, 3:53 PM)29.71 "Hg (Jul 4, 8:53 PM)
Average73 °F52%29.94 "Hg
* Reported Jun 21 4:53 PM — Jul 6 4:53 PM, Idaho Falls, Weather by CustomWeather, © 2015

Note: Actual official high and low records may vary slightly from our data, if they occured in-between our weather recording intervals... More about our weather records

Advertising

Idaho Falls weather history for previous 24 hours

 ConditionsComfort  
Time TempWeatherWind HumidityBarometerVisibility
4:53 PM
Mon, Jul 6
71 °FPartly sunny.10 mph59%30.01 "Hg10 mi
3:53 PM66 °FBroken clouds.13 mph78%30.03 "Hg10 mi
2:53 PM64 °FLight rain. Broken clouds.8 mph84%30.03 "Hg10 mi
1:53 PM62 °FLight rain. Overcast.No wind86%30.10 "Hg7 mi
12:53 PM64 °FOvercast.6 mph81%30.11 "Hg7 mi
11:53 AM63 °FRain. Overcast.6 mph84%30.11 "Hg4 mi
10:53 AM66 °FOvercast.5 mph73%30.09 "Hg10 mi
9:53 AM62 °FBroken clouds.7 mph80%30.09 "Hg10 mi
8:53 AM60 °FBroken clouds.10 mph83%30.08 "Hg10 mi
7:53 AM60 °FPartly sunny.7 mph83%30.08 "Hg10 mi
6:53 AM59 °FMostly cloudy.7 mph84%30.04 "Hg10 mi
5:53 AM59 °FOvercast.9 mph87%30.02 "Hg10 mi
4:53 AM61 °FOvercast.10 mph78%30.01 "Hg10 mi
3:53 AM65 °FPassing clouds.N/A70%30.00 "Hg10 mi
2:53 AM65 °FPassing clouds.8 mph68%29.98 "Hg10 mi
1:53 AM64 °FClear.6 mph73%29.98 "Hg10 mi
12:53 AM65 °FClear.12 mph70%29.97 "Hg10 mi
11:53 PM
Sun, Jul 5
64 °FClear.12 mph78%29.97 "Hg10 mi
10:53 PM70 °FSunny.12 mph59%29.91 "Hg10 mi
9:53 PM70 °FSunny.7 mph59%29.90 "Hg10 mi
8:53 PM72 °FPartly sunny.6 mph49%29.87 "Hg10 mi
7:53 PM68 °FLight rain. Overcast.17 mph65%29.89 "Hg10 mi
6:53 PM79 °FPartly sunny.13 mph38%29.84 "Hg10 mi
Weather by CustomWeather, © 2015

See weather overviewHow to use our weather pages